Earth resources
NORAD ID: 20436
Int'l Code: 1990-005A
Perigee: 582.0 km
Apogee: 795.8 km
Inclination: 98.7 °
Period: 98.4 minutes
Semi major axis: 7059 km
Launch date: January 22, 1990
Source: France (FR)
Comments: Nearing retirement; earth imaging for cartography, defence, agriculture, identifying cadastral parcels, urban planning, telecommunications, the environment, disaster management and mitigation and renewable resources.
Two Line Element Set (TLE):
1 20436U 90005A 13141.48378766 .00001882 00000-0 31743-3 0 5635
2 20436 098.7237 299.9168 0151411 188.8503 170.9914 14.63553890215185
Source: AFSPC
NASA's NSSDC Master Catalog entry for SPOT 2